Zurück zum Katalog

COSMOS 532

AktivMilitärLEO
NORAD 6267·PAYLOAD·🇷🇺 Russia

Gestartet Nov 1, 1972 von Plesetsk Cosmodrome

Loading…

Nächste Überflüge (nächste 24 Stunden)

TLE

AktuellSource: Space-Track

Epoche: Sep 13, 2026, 15:11 UTC

1 06267U 72087E   26256.63289284  .00000006  00000-0  10994-3 0  9990
2 06267  74.0383 334.9443 0108090   9.9087 104.2074 12.69744193496529

Verfolge COSMOS 532 in Echtzeit mit AllMySat

Download on the App Store